Tracking 29892 objects as of 21-Nov-2024
HD Live streaming from Space Station
objects crossing your sky now

JILIN-01 GAOFEN 3I

Track JILIN-01 GAOFEN 3I now!
10-day predictions


NORAD ID: 46461
Int'l Code: 2020-065H
Perigee: 459.3 km
Apogee: 471.8 km
Inclination: 97.3 °
Period: 93.8 minutes
Semi major axis: 6836 km
RCS: Unknown
Launch date: September 15, 2020
Source: People's Republic of China (PRC)
Launch site: Yellow Sea Launch Area, China (YSLA)
Your satellite tracking list
Your tracking list is empty




NASA's NSSDC Master Catalog

Two Line Element Set (TLE):
1 46461U 20065H   24326.11619459  .00030679  00000-0  87810-3 0  9999
2 46461  97.3216   9.9520 0009129  30.1675 330.0093 15.35852103231433
Source of the keplerian elements: AFSPC